Regional Weather Roundup
Issued by NWS Jackson, KY

Home | Current Version | Previous Version | Graphics & Text | Print | Product List | Glossary On
Versions: 1 2 3 4 5 6 7 8 9 10 11 12 13 14 15 16 17 18 19 20 21 22 23 24 25 26 27 28 29 30 31 32 33 34 35 36 37 38 39 40 41 42 43 44 45 46 47 48 49 50
539
ASUS43 KJKL 252110
RWRJKL

EAST KENTUCKY HOURLY WEATHER ROUNDUP
NATIONAL WEATHER SERVICE JACKSON KY
500 PM EDT THU MAY 25 2017

NOTE: "FAIR" INDICATES FEW OR NO CLOUDS BELOW 12,000 FEET WITH
NO SIGNIFICANT WEATHER AND/OR OBSTRUCTIONS TO VISIBILITY.

* THESE REPORTS ARE NOT UNDER NWS QUALITY CONTROL AND MAY NOT
  REPORT WEATHER SUCH AS PRECIPITATION AND FOG.

KYZ079-080-083-085-087-088-110-112-115-119-120-252200
...EASTERN KENTUCKY...

CITY           SKY/WX    TMP DP  RH WIND       PRES   REMARKS
JACKSON        LGT RAIN  57  56  96 VRB6      29.62R FOG
LONDON         LGT RAIN  58  54  86 W14       29.67R FOG
SOMERSET*      CLOUDY    63  52  67 W23G33    29.71R
MONTICELLO*    CLOUDY    67  56  67 W24G30    29.72R
WILLIAMSBURG*  CLOUDY    59  59 100 W7        29.69
MIDDLESBORO*   CLOUDY    60  55  85 W7        29.69R
HARLAN APT*    CLOUDY    55  52  88 SW6       29.68R VSB 1
PIKE CO APT*   DRIZZLE   55  55 100 SW9       29.59R
BIG SANDY APT* DRIZZLE   57  57 100 W8        29.58R
MOREHEAD APT*  CLOUDY    59  55  88 W9G21     29.60R
ASHLAND*       CLOUDY    63  61  94 NW7       29.50
$$

KYZ035-036-041-042-044-050-067-078-099-252200
...CENTRAL KENTUCKY...

CITY           SKY/WX    TMP DP  RH WIND       PRES   REMARKS
MT STERLING*   CLOUDY   N/A N/A N/A NW13G23   29.63
FLEMING/MASON* CLOUDY    60  57  92 W20G29    29.59
DANVILLE*      CLOUDY    63  59  88 W8G16     29.68R
LEXINGTON      CLOUDY    60  55  83 W20G28    29.64R
FRANKFORT      CLOUDY    62  55  77 W12G21    29.63R
LOUISVILLE     PTSUNNY   68  57  68 NW15G24   29.66R
LEBANON*       CLOUDY    64  57  77 W13       29.68R
GLASGOW*       CLOUDY    69  54  60 W12G22    29.72R
BOWLING GREEN  CLOUDY    71  56  58 W13G23    29.73R
$$

KYZ091>093-OHZ055-061-077-WVZ005-015-034-035-042-252200
...SOUTHERN OHIO/WEST VIRGINIA...

CITY           SKY/WX    TMP DP  RH WIND       PRES   REMARKS
COVINGTON      CLOUDY    61  58  90 W18G25    29.59R
COLUMBUS       CLOUDY    67  57  70 SW6       29.47R
DAYTON         CLOUDY    64  59  83 NW22G30   29.54R
WILMINGTON     CLOUDY    65  60  84 N7        29.50F
HUNTINGTON     CLOUDY    61  57  87 W7        29.52R
CHARLESTON     LGT RAIN  58  55  90 S9        29.52R FOG
PINEVILLE*     MIX PCPN  55  53  94 MISG      29.62R VSB 3/4
BECKLEY        LGT RAIN  53  50  89 SW12G21   29.57S
BLUEFIELD      LGT RAIN  50  48  93 SW15G21   29.60F
LOGAN CO APT*  LGT RAIN  55  55 100 SW7       29.55  VSB 3/4
$$

VAZ002-007-008-TNZ017-027-036-066-071-252200
...SOUTHWEST VIRGINIA/EAST TENNESSEE...

CITY           SKY/WX    TMP DP  RH WIND       PRES   REMARKS
WISE*          LGT RAIN  54  54 100 SW14G20   29.66R
JONESVILLE*    LGT RAIN  55  55 100 SW12      29.70R
ABINGDON*      LGT RAIN  55  55  98 W15G22    29.66R
BRISTOL        LGT RAIN  57  53  86 SW17      29.67R FOG
MORRISTOWN*    CLOUDY    61  54  77 W12       29.69S
SEVIERVILLE*   CLOUDY    64  50  59 SW14      29.71R
KNOXVILLE      CLOUDY    66  52  60 SW18G26   29.72
LAFOLLETTE*    CLOUDY    68  54  60 VRB10G22  29.72R
OAK RIDGE      CLOUDY    67  52  58 VRB5      29.73R
CROSSVILLE     CLOUDY    64  51  62 W17       29.77R
NASHVILLE      PTSUNNY   74  50  42 W12G21    29.76S
$$

...KEY TO REMARKS...
VSB - VISIBILITY IN MILES
WCI - WIND CHILL INDEX
HX  - HEAT INDEX

$$




USA.gov is the U.S. government's official web portal to all federal, state and local government web resources and services.